{"data":{"norad_id":29601,"epoch":"2026-05-24T11:39:43.030080Z","epoch_age_seconds":115311,"freshness":"FRESH","line1":"1 29601U 06052A   26144.48591470 -.00000012  00000+0  00000+0 0  9998","line2":"2 29601  54.9372 214.9460 0085625  90.6191 270.4207  2.00556865142936","mean_motion":2.00556865,"eccentricity":0.0085625,"inclination_deg":54.9372,"raan_deg":214.946,"arg_perigee_deg":90.6191,"mean_anomaly_deg":270.4207,"bstar":0,"rev_number":14293,"period_min":718.00085227698,"perigee_km":19955.377718899,"apogee_km":20410.233864204,"semimajor_km":26560.942791551,"source":"CELESTRAK","updated_at":"2026-05-25T13:38:23.729412Z"}}